OpenBCM V1.08-5-g2f4a (Linux)

Packet Radio Mailbox

IZ3LSV

[San Dona' di P. JN]

 Login: GUEST





  
CX2SA  > KEPS     22.11.24 01:46l 366 Lines 17434 Bytes #150 (0) @ AMSAT
BID : ORB24327.1
Read: GUEST
Subj: 2Line Orbital Elements 24327.AMSAT
Path: IZ3LSV<DB0ERF<DK0WUE<PI8ZTM<OZ5BBS<CX2SA
Sent: 241122/0024Z @:CX2SA.SAL.URY.SOAM #:45755 [Salto] FBB7.00e $:ORB24327.1
From: CX2SA@CX2SA.SAL.URY.SOAM
To  : KEPS@AMSAT


QST de W1STR

AMSAT Orbital Elements for Amateur Satellites in TLE Format
>From Orbital Analysis Office
New England Sci-Tech STEM Education Center
Natick, MA November 22, 2024
To all radio amateurs


These element sets describe the orbits of various satellites
in use by the amateur radio community. For details see:
www.amsat.org/keplerian-elements-formats/

A daily update of element sets is available at:
www.amsat.org/tle/daily-bulletin.txt
or without bulletin text:
www.amsat.org/tle/dailytle.txt


AO-07
1 07530U 74089B   24326.45262685 -.00000036  00000-0  66119-4 0  9995
2 07530 101.9895 322.6351 0012288 143.1129  14.0129 12.53682712288747
UO-11
1 14781U 84021B   24326.31629231  .00003389  00000-0  37442-3 0  9996
2 14781  97.7280 291.1802 0006202 282.5493  77.5030 14.88064212171841
AO-27
1 22825U 93061C   24325.57782470  .00000258  00000-0  11595-3 0  9993
2 22825  98.7684  19.8344 0008096 349.0386  11.0618 14.30659395624978
FO-29
1 24278U 96046B   24325.35077294  .00000037  00000-0  71464-4 0  9997
2 24278  98.5862 239.5543 0350648 143.6596 218.8914 13.53222327395554
NOAA-15
1 25338U 98030A   24326.68302715  .00000346  00000-0  16057-3 0  9995
2 25338  98.5556 350.4444 0009556 219.6121 140.4362 14.26801335379891
GO-32
1 25397U 98043D   24326.75689371  .00000262  00000-0  13385-3 0  9996
2 25397  98.9454 296.0140 0002329  74.7167 285.4269 14.24193580370066
ISS
1 25544U 98067A   24326.71833241  .00023589  00000-0  42270-3 0  9991
2 25544  51.6385 254.9358 0007553 253.3030 106.7130 15.49798097482980
NO-44
1 26931U 01043C   24326.42409998  .00000509  00000-0  22227-3 0  9993
2 26931  67.0506 285.2614 0007191 262.0386  97.9900 14.31504958208611
SO-50
1 27607U 02058C   24326.34690056  .00002998  00000-0  40718-3 0  9998
2 27607  64.5539  98.0302 0032136  31.5954 328.7071 14.80332640179781
CO-55
1 27844U 03031E   24325.49057394  .00000741  00000-0  34392-3 0  9995
2 27844  98.6787 330.3962 0010653  55.2051 305.0129 14.23648756110054
CO-57
1 27848U 03031J   24326.47316685  .00000584  00000-0  27836-3 0  9999
2 27848  98.6815 331.5146 0010678  67.7134 292.5176 14.23035955109954
RS-22
1 27939U 03042A   24326.74640766  .00002980  00000-0  49144-3 0  9990
2 27939  98.3073 125.7632 0010666 283.9459 200.8472 14.71210891131436
NOAA-18
1 28654U 05018A   24326.72682341  .00000399  00000-0  23564-3 0  9993
2 28654  98.8628  42.3039 0013696 340.2987  19.7654 14.13426733  5514
CO-58
1 28895U 05043F   24326.37109742  .00004007  00000-0  68486-3 0  9990
2 28895  98.2234 102.8042 0014614 218.1634 141.8537 14.69390886 17753
CO-65
1 32785U 08021C   24326.48982132  .00008404  00000-0  67222-3 0  9998
2 32785  97.7723 291.0451 0011605 164.3399 195.8185 15.00403199899030
AAUSAT2
1 32788U 08021F   24326.69851365  .00060574  00000-0  18513-2 0  9991
2 32788  97.6052 309.0428 0005259  40.8778 319.2857 15.33645041902413
CO-66
1 32791U 08021J   24326.34301913  .00017808  00000-0  10889-2 0  9996
2 32791  97.7098 297.4307 0006808 115.4036 244.7898 15.10288998900189
RS-30
1 32953U 08025A   24326.81302230  .00000030  00000-0  14092-3 0  9995
2 32953  82.5042 351.4460 0020591 120.0086 240.3040 12.43153525748713
PRISM
1 33493U 09002B   24326.40989597  .00063369  00000-0  17563-2 0  9992
2 33493  98.1800  29.1197 0008101  63.9538 296.2537 15.36692925863024
NOAA-19
1 33591U 09005A   24326.70124531  .00000348  00000-0  20993-3 0  9996
2 33591  99.0276  24.0244 0013462 204.6312 155.4218 14.13205317813876
SRMSAT
1 37841U 11058D   24326.32082170  .00000608  00000-0  18751-3 0  9997
2 37841  19.9725 286.2800 0011787  23.3100 127.2261 14.11288513677002
RS-40
1 38735U 12041C   24326.66439388  .00000049  00000-0  28613-3 0  9994
2 38735  82.4768  71.6874 0016928 233.3035 126.6490 12.42620728558821
ZACUBE-1
1 39417U 13066B   24326.31681809  .00009310  00000-0  88545-3 0  9999
2 39417  97.7555 279.2633 0047999   2.5777 357.5680 14.92787076594993
Delfi-N3xt
1 39428U 13066N   24326.23247466  .00014039  00000-0  16046-2 0  9999
2 39428  97.8351 240.8400 0091454 299.0945  60.1134 14.83118636589503
GOMX-1
1 39430U 13066Q   24326.69291399  .00003673  00000-0  59094-3 0  9999
2 39430  97.7056 191.5033 0137431 111.0022 250.5947 14.65946322586107
LO-74
1 39440U 13066AA  24326.27256873  .00006907  00000-0  75464-3 0  9994
2 39440  97.8292 266.9651 0067841 118.4985 242.3084 14.86491376592846
AO-73
1 39444U 13066AE  24326.32646508  .00012779  00000-0  10978-2 0  9994
2 39444  97.7406 282.9103 0043844 340.7568  19.1996 14.96826236594167
DTUSAT-2
1 40030U 14033W   24326.34370890  .00011891  00000-0  88689-3 0  9991
2 40030  98.0332 283.5896 0011878  30.4262 329.7649 15.02976668566262
EO-80
1 40032U 14033Y   24326.37449092  .00012975  00000-0  96633-3 0  9999
2 40032  98.0201 283.5400 0008671 327.4691  32.5998 15.03036018566760
XW-2C
1 40906U 15049H   24326.79187484  .00110922  00000-0  11270-2 0  9991
2 40906  97.4603 349.6329 0007340  89.2261 270.9839 15.64798263508909
LILACSAT-2
1 40908U 15049K   24326.80869502  .00015668  00000-0  51071-3 0  9998
2 40908  97.5208 337.2037 0012003 144.8564 215.3471 15.31836576507579
IO-86
1 40931U 15052B   24322.18265442  .00001592  00000-0  12634-3 0  9991
2 40931   6.0008 339.1587 0012218  92.8814 267.2712 14.78351066494134
ChubuSat-2
1 41338U 16012B   24326.42629827  .00009382  00000-0  52971-3 0  9995
2 41338  30.9998  96.4053 0010625  20.7226 339.3842 15.11791210481383
ChubuSat-3
1 41339U 16012C   24326.57946556  .00008323  00000-0  48227-3 0  9996
2 41339  31.0067  95.1380 0010740  24.1971 335.9170 15.10820648481377
Horyu-4
1 41340U 16012D   24325.51365138  .00024612  00000-0  96818-3 0  9990
2 41340  31.0026  31.4782 0009924 133.1518 226.9955 15.24424930481956
Lapan A3
1 41603U 16040E   24326.72634206  .00005521  00000-0  20818-3 0  9997
2 41603  97.1402 333.5067 0009563 260.7117  99.3042 15.27404445467250
Pratham
1 41783U 16059A   24326.46974596  .00001523  00000-0  28667-3 0  9994
2 41783  97.8305 338.4519 0030762 240.1951 119.6194 14.65670698435577
CAS-2T
1 41847U 16066G   24326.56758760  .00001845  00000-0  27200-3 0  9996
2 41847  98.4450  36.6784 0350968  63.0838 300.5758 14.42425760422178
CAS-4B
1 42759U 17034B   24326.54576750  .00037766  00000-0  94410-3 0  9998
2 42759  43.0153  50.9655 0014263 337.4230  22.5997 15.39380405411551
CAS-4A
1 42761U 17034D   24326.59535197  .00039284  00000-0  97218-3 0  9992
2 42761  43.0188  48.8625 0014751 347.0142  13.0332 15.39665670411576
D-SAT
1 42794U 17036AF  24326.35953933  .00014968  00000-0  93917-3 0  9990
2 42794  97.4948 302.9562 0101636 334.6035  25.0215 15.05131123404327
TechnoSat
1 42829U 17042E   24326.52382466  .00005906  00000-0  49029-3 0  9999
2 42829  97.3892 139.0957 0010559 266.2344  93.7673 14.99084890400726
AO-91
1 43017U 17073E   24325.86909265  .00013521  00000-0  75194-3 0  9995
2 43017  97.5505 196.1054 0196605 127.1737 234.7619 14.98732115379089
S-Net D
1 43186U 18014G   24326.18562054  .00008609  00000-0  56264-3 0  9993
2 43186  97.5762 225.4496 0009288 178.4483 181.6776 15.08015861372131
S-Net B
1 43187U 18014H   24326.58699455  .00008834  00000-0  57714-3 0  9995
2 43187  97.5764 225.8061 0010252 173.2140 186.9229 15.08009578372197
S-Net A
1 43188U 18014J   24326.18657255  .00008638  00000-0  56435-3 0  9995
2 43188  97.5775 225.5377 0010087 175.5357 184.5963 15.08018873372139
S-Net C
1 43189U 18014K   24326.19088571  .00008558  00000-0  55920-3 0  9995
2 43189  97.5792 225.5210 0011976 170.0676 190.0791 15.08001364370683
Ten-Koh
1 43677U 18084G   24326.41720380  .00005137  00000-0  43622-3 0  9996
2 43677  98.0815 125.0067 0012247 213.2899 146.7553 14.98306819330243
PO-101
1 43678U 18084H   24326.86887530  .00004121  00000-0  36653-3 0  9995
2 43678  98.0864 129.8088 0007935 222.2082 137.8528 14.96659080330494
QO-100
1 43700U 18090A   24326.51993723  .00000147  00000-0  00000-0 0  9990
2 43700   0.0097 344.7850 0002245 294.1575 355.0501  1.00273365 21930
MinXSS-2
1 43758U 18099A   24325.74879082  .00020443  00000-0  10616-2 0  9994
2 43758  97.5331  26.2068 0015144 136.2439 223.9996 15.16038639326445
AO-95
1 43770U 18099N   24326.10011893  .00014339  00000-0  86072-3 0  9994
2 43770  97.5238  20.9139 0012266 180.5538 179.5680 15.10964209326215
RANGE-B
1 43772U 18099Q   24326.15811510  .00024260  00000-0  11853-2 0  9993
2 43772  97.5034  25.2918 0005253  86.8245 273.3590 15.18229980326463
RANGE-A
1 43773U 18099R   24325.94337760  .00008095  00000-0  56430-3 0  9999
2 43773  97.4810  14.2639 0012853 153.4208 206.7681 15.05599659325994
MOVE-II
1 43780U 18099Y   24326.11836427  .00050151  00000-0  16915-2 0  9994
2 43780  97.4987  28.8426 0005146 144.6677 215.4905 15.30532574326797
SNUSat 2
1 43782U 18099AA  24326.43375444  .00011790  00000-0  74045-3 0  9993
2 43782  97.4924  19.4729 0014465 122.1487 238.1148 15.09334714326250
SnugLite
1 43784U 18099AC  24325.57355060  .00015919  00000-0  94982-3 0  9990
2 43784  97.4735  17.9385 0004909 125.4833 234.6856 15.11210859326215
ITASat 1
1 43786U 18099AE  24326.12936551  .00009991  00000-0  64542-3 0  9996
2 43786  97.4885  19.1754 0016093 171.6829 188.4669 15.08321924326199
EAGLET 1
1 43790U 18099AJ  24326.10554532  .00008484  00000-0  58723-3 0  9994
2 43790  97.5080  19.5731 0013486 151.8779 208.3179 15.05843920325861
ESEO
1 43792U 18099AL  24326.53597054  .00003581  00000-0  28353-3 0  9998
2 43792  97.4874  15.6693 0009638 111.7323 248.4929 15.01162983325790
CSIM
1 43793U 18099AM  24326.15249573  .00048489  00000-0  16633-2 0  9990
2 43793  97.5127  30.7087 0009332 123.7339 236.4791 15.29964249326643
